[[{"header":{"parameterUnit":"m.s-1","parameterCategory":1,"la1":30.2991,"la2":30.254,"lo1":-89.0895,"lo2":-89.0444,"dy":0.0017,"dx":0.0017,"nx":28,"ny":28,"refTime":"2025-05-22T09:00:00:Z","depth":0,"parameterNumber":2,"parameterNumberName":"U-component_of_WINDS"},"data":[0,0,0,0,0,0,0,0,0,0,0,0,0,0,0,0,0,0,0,0,0,0,0,0,0,0,0,0,0,0,0,0,0,0,0,0,0,0,0,0,0,0,0,0,0,0,0,0,0,0,0,0,0,0,0,0,0,0,-3.1533,-3.1533,0,-3.1526,-3.1526,-3.1526,-3.1438,-3.1435,-3.1433,-3.1431,-3.1425,-3.1427,-3.1429,0,0,0,0,0,0,0,0,0,0,0,0,0,-3.1472,-3.1474,-3.1533,-3.1533,-3.1533,-3.1526,-3.1526,-3.1526,-3.1438,-3.1435,-3.1433,-3.143,-3.1424,-3.1427,-3.1429,0,0,0,0,0,0,0,0,0,0,0,0,0,-3.1486,-3.1475,-3.1533,-3.1488,-3.1484,-3.1526,-3.1526,-3.1526,-3.1439,-3.1435,-3.1432,-3.1429,-3.1424,-3.1427,-3.1429,-3.1514,0,0,-3.1438,-3.1439,0,0,0,0,0,0,0,0,-3.1485,-3.1488,-3.1495,-3.1491,-3.1487,-3.1479,-3.1502,-3.1522,-3.1439,-3.1456,-3.1431,-3.1427,-3.1446,-3.1447,-3.1453,-3.1514,-3.1514,-3.1438,-3.144,-3.1441,-3.1442,0,0,0,0,0,0,0,-3.1484,-3.1488,-3.153,-3.1495,-3.149,-3.1469,-3.1467,-3.1506,-3.147,-3.1454,-3.1448,-3.1448,-3.1443,-3.145,-3.1452,-3.1514,-3.1438,-3.1441,-3.1443,-3.1444,-3.1646,-3.1649,0,0,0,0,0,0,-3.1489,-3.1488,-3.153,-3.153,-3.1478,-3.1473,-3.1471,-3.1485,-3.1469,-3.1463,-3.1451,-3.1444,-3.1447,-3.1449,-3.1452,-3.1551,-3.1441,-3.1444,-3.1446,-3.1642,-3.1647,-3.1651,0,0,0,0,0,0,-3.1488,-3.1494,-3.1531,-3.1507,-3.151,-3.1478,-3.1494,-3.1487,-3.1494,-3.1467,-3.146,-3.1465,-3.1444,-3.1447,-3.15,-3.1549,-3.1445,-3.1448,-3.1638,-3.1644,-3.1649,-3.1749,0,0,0,0,0,0,-3.1487,-3.1494,-3.1525,-3.1508,-3.1512,-3.1579,-3.1497,-3.1489,-3.1499,-3.149,-3.1478,-3.1473,-3.1442,-3.1496,-3.1503,-3.1551,-3.145,-3.1633,-3.164,-3.1647,-3.1741,-3.1758,-3.1771,0,0,0,0,0,-3.1485,-3.1554,-3.1527,-3.1533,-3.155,-3.1582,-3.1583,-3.1546,-3.1503,-3.1535,-3.1518,-3.1473,-3.1543,-3.1502,-3.1509,-3.1559,-3.163,-3.1638,-3.1646,-3.1735,-3.1754,-3.1771,0,0,0,0,0,0,-3.1577,-3.1551,-3.1521,-3.1586,-3.1587,-3.1567,-3.1605,-3.1568,-3.1581,-3.1572,-3.1526,-3.1524,-3.1584,-3.1577,-3.1531,-3.1641,-3.1579,-3.1589,-3.1644,-3.1662,-3.1677,-3.1677,-3.1453,0,0,0,0,0,-3.1605,-3.1632,-3.1608,-3.1668,-3.167,-3.1638,-3.165,-3.1622,-3.1621,-3.162,-3.1607,-3.1608,-3.163,-3.1646,-3.1665,-3.174,-3.1737,-3.1779,-3.1794,-3.1806,-3.1815,-3.1856,-3.1874,-3.1677,-3.1677,-3.1677,0,0,-3.1662,-3.1652,-3.1671,-3.1686,-3.1683,-3.1713,-3.1638,-3.1673,-3.1695,-3.1626,-3.1674,-3.1665,-3.1663,-3.1728,-3.1756,-3.1724,-3.1869,-3.1816,-3.1827,-3.1829,-3.1866,-3.1885,-3.1902,-3.1683,-3.1682,-3.1681,0,0,-3.1783,-3.1777,-3.1827,-3.1826,-3.1823,-3.1802,-3.1814,-3.18,-3.1791,-3.1839,-3.1788,-3.1814,-3.1853,-3.1855,-3.186,-3.1985,-3.1944,-3.1992,-3.207,-3.2111,-3.2126,-3.214,-3.2185,-3.2201,-3.2001,-3.2002,-3.2002,0,-3.1855,-3.1898,-3.1857,-3.1896,-3.1904,-3.1844,-3.1894,-3.1896,-3.1899,-3.1907,-3.1871,-3.192,-3.1914,-3.1979,-3.201,-3.2016,-3.203,-3.1993,-3.2127,-3.214,-3.2152,-3.2195,-3.2212,-3.2007,-3.2007,-3.2006,-3.2006,0,-3.1987,-3.2018,-3.2059,-3.2064,-3.2077,-3.2122,-3.2089,-3.2107,-3.2079,-3.2062,-3.2113,-3.2104,-3.2121,-3.2135,-3.2107,-3.2196,-3.2177,-3.2135,-3.2071,-3.2178,-3.2217,-3.2233,-3.2016,-3.2014,-3.2012,-3.2011,0,0,-3.2163,-3.2147,-3.2163,-3.2165,-3.2159,-3.2182,-3.2225,-3.2241,-3.2258,-3.2264,-3.2299,-3.2335,-3.2296,-3.2303,-3.2275,-3.2311,-3.2411,-3.2265,-3.2264,-3.2293,-3.2511,-3.2542,-3.2562,-3.2385,-3.2388,-3.239,-3.2511,0,-3.228,-3.2351,-3.2317,-3.2393,-3.2421,-3.2365,-3.2403,-3.2403,-3.2389,-3.2412,-3.2397,-3.2423,-3.237,-3.2374,-3.2407,-3.2392,-3.2454,-3.2383,-3.2418,-3.242,-3.242,-3.2582,-3.2615,-3.2729,-3.2526,-3.2529,-3.2531,0,-3.2424,-3.2436,-3.2515,-3.2505,-3.2516,-3.255,-3.2563,-3.2586,-3.2586,-3.2573,-3.2583,-3.2547,-3.2589,-3.2527,-3.2586,-3.2538,-3.2551,-3.2546,-3.2549,-3.2551,-3.2481,-3.2588,-3.2765,-3.2782,-3.2554,-3.2552,-3.2551,0,-3.2546,-3.2582,-3.2634,-3.2637,-3.2627,-3.2652,-3.2649,-3.2646,-3.2659,-3.2671,-3.2679,-3.2697,-3.2706,-3.2721,-3.2692,-3.2649,-3.2755,-3.269,-3.2746,-3.2747,-3.277,-3.2769,-3.2952,-3.2779,-3.2779,-3.2779,-3.2778,0,-3.2679,-3.273,-3.2688,-3.272,-3.2776,-3.2737,-3.2793,-3.2784,-3.2783,-3.2813,-3.2766,-3.2795,-3.2755,-3.2781,-3.2758,-3.2811,-3.2816,-3.2807,-3.2801,-3.2811,-3.2813,-3.2819,-3.281,-3.2783,-3.2782,-3.2781,-3.2781,0,-3.2824,-3.2798,-3.2851,-3.2837,-3.2835,-3.2876,-3.2865,-3.2895,-3.2878,-3.2917,-3.2924,-3.2898,-3.2927,-3.2899,-3.2926,-3.2911,-3.2982,-3.2963,-3.2981,-3.2976,-3.3035,-3.303,-3.3227,-3.3252,-3.3064,-3.3066,-3.3067,0,-3.291,-3.2948,-3.2939,-3.2955,-3.2955,-3.2983,-3.2996,-3.296,-3.2976,-3.2981,-3.301,-3.3035,-3.3052,-3.3101,-3.3085,-3.3106,-3.3088,-3.3156,-3.309,-3.3101,-3.3089,-3.3087,-3.3091,-3.3169,-3.3171,-3.3173,-3.3174,0,-3.3067,-3.3053,-3.3073,-3.3091,-3.3108,-3.3119,-3.3127,-3.3144,-3.3107,-3.3128,-3.3156,-3.317,-3.3198,-3.3224,-3.324,-3.3237,-3.3201,-3.3195,-3.3209,-3.322,-3.3229,-3.3226,-3.3018,-3.319,-3.3189,-3.3188,-3.3187,-3.3186,-3.3185,-3.3216,-3.3215,-3.324,-3.3243,-3.3252,-3.328,-3.3268,-3.3291,-3.331,-3.3288,-3.3324,-3.3325,-3.3343,-3.3346,-3.3373,-3.3345,-3.3365,-3.3371,-3.3376,-3.3385,-3.3226,-3.3376,-3.3376,-3.3375,-3.3375,-3.3375,0,-3.334,-3.3337,-3.336,-3.3373,-3.3394,-3.3358,-3.3365,-3.3385,-3.3416,-3.3421,-3.344,-3.3473,-3.3498,-3.3486,-3.3508,-3.3533,-3.3516,-3.354,-3.3537,-3.3538,-3.3409,-3.3395,-3.3552,-3.3552,-3.3552,-3.3552,-3.3552,-3.3552,-3.3422,-3.3474,-3.346,-3.3514,-3.351,-3.3544,-3.3552,-3.3561,-3.3564,-3.3604,-3.3625,-3.3616,-3.3615,-3.3636,-3.3658,-3.3654,-3.3664,-3.3694,-3.3684,-3.3564,-3.3546,-3.353,-3.3516,-3.3696,-3.3697,-3.381,-3.3811,-3.3812]},{"header":{"parameterUnit":"m.s-1","parameterCategory":1,"la1":30.2991,"la2":30.254,"lo1":-89.0895,"lo2":-89.0444,"dy":0.0017,"dx":0.0017,"nx":28,"ny":28,"refTime":"2025-05-22T09:00:00:Z","depth":0,"parameterNumber":3,"parameterNumberName":"V-component_of_WINDS"},"data":[0,0,0,0,0,0,0,0,0,0,0,0,0,0,0,0,0,0,0,0,0,0,0,0,0,0,0,0,0,0,0,0,0,0,0,0,0,0,0,0,0,0,0,0,0,0,0,0,0,0,0,0,0,0,0,0,0,0,2.9913,2.9914,0,2.9955,2.9955,2.9956,3.0019,3.002,3.0022,3.0023,3.006,3.006,3.006,0,0,0,0,0,0,0,0,0,0,0,0,0,2.9884,2.9884,2.9913,2.9914,2.9914,2.9955,2.9955,2.9956,3.0019,3.002,3.0022,3.0023,3.006,3.006,3.006,0,0,0,0,0,0,0,0,0,0,0,0,0,2.9908,2.9884,2.9913,2.9951,2.9955,2.9955,2.9956,2.9956,3.0019,3.002,3.0022,3.0024,3.006,3.006,3.006,3.0025,0,0,3.0059,3.0059,0,0,0,0,0,0,0,0,2.9907,2.9909,2.9945,2.9948,2.9952,2.9984,2.9959,2.9979,3.0018,2.9994,3.0023,3.0025,3.0033,3.0035,3.0039,3.0026,3.0028,3.0059,3.0059,3.0059,3.0059,0,0,0,0,0,0,0,2.9905,2.9908,2.993,2.9945,2.995,2.9964,2.997,2.9963,3.0003,2.9996,3.0001,3.0006,3.0035,3.0039,3.004,3.0029,3.0059,3.0059,3.0059,3.0059,2.9991,2.9989,0,0,0,0,0,0,2.9898,2.9906,2.9928,2.9931,2.9933,2.9963,2.9969,2.9972,3.0003,3.001,3.0004,3.0008,3.0038,3.004,3.0042,3.0003,3.0059,3.0059,3.0059,2.9992,2.999,2.9988,0,0,0,0,0,0,2.9897,2.99,2.9927,2.992,2.9924,2.9962,2.9964,2.9972,2.9976,3.0009,3.0016,3.0001,3.004,3.0042,3.0029,3.0005,3.0059,3.0059,2.9994,2.9992,2.9989,2.9925,0,0,0,0,0,0,2.9896,2.9899,2.9887,2.9919,2.9924,2.9914,2.9963,2.9971,2.9976,2.9982,3.0008,3.0014,3.0041,3.0029,3.0029,3.0006,3.0059,2.9997,2.9993,2.999,2.993,2.9921,2.9913,0,0,0,0,0,2.9895,2.9866,2.9886,2.9888,2.991,2.9913,2.9915,2.9949,2.9974,2.9961,2.9983,3.0013,3.0008,3.0027,3.0028,3.0004,2.9998,2.9994,2.999,2.9933,2.9923,2.9914,0,0,0,0,0,0,2.9827,2.987,2.9893,2.9874,2.9889,2.9923,2.9908,2.9936,2.9944,2.9949,2.9989,2.9994,2.9976,2.9989,3.0009,2.9973,3.0008,3.0004,2.9964,2.9955,2.9947,2.9943,3.0059,0,0,0,0,0,2.981,2.981,2.9848,2.9827,2.9834,2.987,2.9872,2.9897,2.9914,2.992,2.9941,2.9955,2.9957,2.9957,2.996,2.9933,2.9939,2.9917,2.9909,2.9902,2.9898,2.9885,2.9875,2.9975,2.9975,2.9975,0,0,2.9774,2.9798,2.9795,2.9814,2.9829,2.9826,2.9874,2.987,2.9868,2.9919,2.9908,2.9924,2.9942,2.9922,2.9915,2.9933,2.9872,2.9897,2.9892,2.9891,2.9879,2.987,2.9861,2.9973,2.9973,2.9974,0,0,2.9708,2.9726,2.9711,2.9726,2.9749,2.9774,2.9771,2.9801,2.9814,2.9805,2.9843,2.9842,2.9844,2.9855,2.9861,2.9803,2.983,2.9803,2.9759,2.9745,2.9738,2.9731,2.9709,2.9701,2.9798,2.9798,2.9798,0,2.966,2.9659,2.9699,2.9693,2.97,2.9749,2.9733,2.9745,2.9767,2.977,2.9791,2.9796,2.9812,2.9795,2.9781,2.9785,2.9781,2.9799,2.9736,2.9729,2.9724,2.9703,2.9695,2.9795,2.9795,2.9795,2.9796,0,2.9599,2.9598,2.9583,2.9606,2.9612,2.96,2.9638,2.9638,2.9664,2.9686,2.9676,2.9697,2.9706,2.9704,2.9728,2.9691,2.9702,2.9729,2.9765,2.971,2.9691,2.9684,2.9789,2.9791,2.9792,2.9793,0,0,2.9488,2.9536,2.9529,2.9541,2.9571,2.957,2.9562,2.9573,2.9572,2.9587,2.958,2.9582,2.9608,2.9615,2.964,2.9629,2.958,2.9657,2.9658,2.9641,2.9541,2.952,2.951,2.96,2.9599,2.9598,2.9539,0,2.9426,2.9416,2.9453,2.9432,2.9432,2.9479,2.9472,2.9489,2.951,2.9512,2.9535,2.9536,2.957,2.9575,2.9566,2.9588,2.956,2.9593,2.9592,2.9591,2.9584,2.9501,2.9478,2.9421,2.9532,2.9531,2.953,0,2.9352,2.9365,2.9345,2.9379,2.938,2.9373,2.9387,2.9388,2.9409,2.9425,2.9434,2.9465,2.9458,2.9494,2.9484,2.9506,2.9508,2.9519,2.9518,2.9517,2.9556,2.9497,2.9404,2.9395,2.952,2.952,2.9521,0,2.9272,2.9285,2.9275,2.9283,2.9322,2.9316,2.9331,2.9354,2.9359,2.9371,2.9374,2.9384,2.9389,2.9396,2.9428,2.9452,2.9414,2.9453,2.9426,2.9425,2.9414,2.9414,2.932,2.9418,2.9418,2.9418,2.9419,0,2.9199,2.9184,2.924,2.9233,2.9219,2.9261,2.9245,2.9265,2.9286,2.9283,2.9325,2.9321,2.9365,2.9366,2.9391,2.9379,2.9381,2.9393,2.94,2.9389,2.9387,2.9389,2.9393,2.9416,2.9417,2.9417,2.9417,0,2.9105,2.9142,2.9135,2.9173,2.9183,2.917,2.9202,2.9197,2.9223,2.9219,2.922,2.9259,2.9262,2.9296,2.9306,2.9324,2.9301,2.9316,2.9294,2.9299,2.927,2.9271,2.9172,2.9161,2.9267,2.9266,2.9265,0,2.9055,2.9046,2.9084,2.9087,2.9101,2.9104,2.9111,2.9153,2.9157,2.9181,2.9173,2.9181,2.9189,2.9192,2.922,2.9228,2.9242,2.9207,2.9244,2.9233,2.9241,2.924,2.9239,2.9198,2.9197,2.9196,2.9195,0,2.8962,2.8982,2.899,2.9005,2.9012,2.9025,2.904,2.904,2.9086,2.9089,2.9095,2.9101,2.9113,2.912,2.9134,2.9148,2.9178,2.9184,2.9178,2.9166,2.9153,2.9159,2.9272,2.9185,2.9186,2.9187,2.9188,2.9188,2.8888,2.8883,2.8909,2.8917,2.8935,2.8949,2.8947,2.8973,2.8979,2.8993,2.9018,2.902,2.9042,2.9064,2.9076,2.9077,2.9095,2.9087,2.9084,2.9081,2.9075,2.9155,2.908,2.908,2.9081,2.9081,2.9081,0,2.8797,2.8817,2.8824,2.8847,2.8853,2.8885,2.8904,2.8907,2.8909,2.8928,2.8936,2.8942,2.895,2.8979,2.8989,2.8985,2.8999,2.8986,2.8986,2.8988,2.9059,2.9063,2.8974,2.8974,2.8974,2.8974,2.8974,2.8974,2.8749,2.8742,2.8765,2.8765,2.8786,2.879,2.8798,2.8811,2.8827,2.8833,2.8841,2.8861,2.8884,2.8897,2.8904,2.8913,2.8914,2.8896,2.8908,2.8973,2.8983,2.8993,2.8997,2.8896,2.8896,2.8838,2.8837,2.8837]}]]